Wind_Speed
7 8 8 8 9 9 9 10 10 11 11 12 13 13 14 14 15 15 16 16 17 17 18 19 19 20 21 21 21 22 22 22 21 21 22 23 24 24
8 8 9 9 9 10 10 11 11 12 12 13 14 14 15 15 16 16 17 17 18 19 20 20 21 21 22 22 22 23 23 23 22 23 24 24 25 26
9 9 9 10 10 11 12 12 13 13 14 14 15 15 16 17 18 18 19 19 19 20 21 22 22 23 24 24 24 24 24 25 25 25 25 26 27 28
10 10 10 11 12 12 13 14 14 14 15 16 16 17 18 19 20 20 21 22 22 23 23 23 24 25 25 25 26 26 26 26 27 27 27 28 29 30
11 12 12 12 13 14 14 15 15 16 17 18 18 19 20 20 21 22 23 24 24 25 25 26 26 26 27 27 27 27 28 28 29 29 30 30 31 32
13 13 14 14 15 15 16 16 17 18 19 19 20 20 21 22 23 24 24 25 26 27 27 28 28 28 29 29 29 30 30 30 30 31 32 32 33 33
14 15 15 16 16 16 17 18 18 19 20 20 21 22 23 24 24 25 26 27 28 29 29 29 30 30 30 30 31 31 32 32 32 33 33 34 34 35
15 15 16 16 17 17 18 19 19 20 21 22 22 23 24 25 26 27 28 28 29 30 30 31 31 32 32 32 33 33 33 33 34 34 35 36 36 37
15 16 16 17 17 18 19 20 21 22 23 24 24 25 26 27 28 29 29 30 31 31 32 32 32 32 33 33 33 34 34 35 36 37 37 37 38 38
17 18 18 18 19 20 20 22 23 24 25 25 26 27 28 29 30 30 31 31 31 32 33 33 33 33 34 35 35 36 37 38 38 39 40 40 41 41
18 19 19 20 21 22 23 24 24 25 26 27 28 29 29 30 31 32 32 32 32 33 34 35 35 35 36 37 37 38 38 39 40 41 42 43 43 43
19 20 21 22 23 23 24 24 25 26 27 28 28 29 30 31 32 33 33 33 34 34 35 36 36 36 36 37 38 39 40 41 42 43 43 43 43 43
20 21 22 23 24 24 25 26 27 28 28 29 29 30 31 32 33 34 34 35 36 36 36 36 36 37 37 37 38 40 41 42 43 43 43 43 43 43
21 22 22 24 25 26 27 28 28 29 30 30 31 31 32 33 34 34 35 36 37 37 37 37 38 38 39 39 39 40 41 42 42 42 43 43 43 42
22 23 24 25 26 27 28 28 29 30 31 31 31 32 33 34 35 36 36 37 37 37 38 39 39 40 40 41 41 40 41 41 41 41 41 42 42 42
23 24 25 26 27 28 28 29 30 31 31 32 33 34 35 36 36 37 37 37 38 39 40 40 40 41 41 41 42 42 43 42 41 41 41 41 41 42
25 25 26 27 28 28 29 29 30 31 32 33 34 35 36 36 36 37 38 38 39 39 39 40 40 41 42 42 43 43 43 43 43 42 41 41 41 42
26 27 28 29 30 30 30 31 31 33 33 34 35 35 36 37 37 37 38 39 40 39 39 40 41 41 42 43 44 44 43 43 42 42 41 41 42 43
28 28 29 30 30 31 32 32 33 33 34 35 36 36 37 37 38 38 39 39 40 40 40 41 41 42 42 42 42 44 43 42 42 42 42 42 42 42
29 29 30 31 32 32 33 33 34 34 35 36 37 37 38 38 39 40 41 41 41 40 41 42 42 43 43 43 43 44 44 43 42 42 42 43 43 43
31 31 32 32 33 33 34 34 35 35 36 37 37 38 39 40 40 41 41 42 42 42 42 43 43 44 44 44 44 43 42 43 42 42 42 42 42 42
32 33 34 34 35 35 35 36 36 37 38 38 39 40 41 42 42 42 42 42 42 42 42 43 43 44 44 44 44 43 42 42 43 43 42 42 41 40
33 34 35 36 36 37 37 37 38 39 40 40 41 41 42 43 43 43 43 43 43 44 44 44 44 44 44 44 44 43 42 41 41 41 41 41 41 40
Wind_Direction
306 308 308 306 302 300 298 297 297 296 296 297 298 299 298 300 300 299 296 296 296 296 296 296 296 296 295 295 294 291 289 288 285 282 279 278 277 276
305 304 304 303 302 300 299 298 297 297 295 295 297 298 300 301 302 302 301 299 299 298 298 297 296 296 296 296 295 294 292 288 284 282 282 280 280 279
303 303 300 299 299 299 299 298 297 297 297 296 296 298 298 300 301 301 301 300 300 300 300 298 297 296 295 296 296 294 293 290 288 283 281 280 279 278
300 300 300 298 298 298 298 298 298 299 298 298 297 298 297 299 298 298 299 298 298 298 298 298 297 296 296 295 295 295 293 291 290 286 284 282 282 281
299 299 300 300 299 298 297 298 298 298 298 298 297 297 296 296 297 297 297 297 297 297 297 296 296 295 295 294 294 294 293 291 290 288 287 285 284 284
295 297 299 300 299 299 299 299 299 299 298 298 298 297 297 297 297 298 298 298 298 298 297 296 295 294 294 293 293 292 292 291 290 289 288 286 286 285
296 298 300 301 300 299 299 299 299 299 299 299 299 299 299 299 298 298 299 299 298 298 298 297 296 295 294 294 293 292 292 291 290 289 288 288 288 287
296 299 301 302 302 301 300 300 301 301 300 300 300 301 300 300 299 299 299 298 298 297 297 297 296 295 294 294 293 293 292 292 291 290 289 289 288 287
297 299 301 302 302 302 302 302 303 303 303 303 303 303 303 302 301 300 300 299 299 298 297 297 296 296 295 294 294 293 293 293 292 291 290 289 288 287
297 298 299 300 302 304 303 303 304 305 304 304 303 304 304 304 303 302 301 301 300 299 299 298 297 296 295 295 294 294 293 293 293 292 291 289 288 288
298 298 300 301 302 303 304 304 305 305 306 305 305 305 305 305 305 304 303 302 301 300 299 299 298 297 297 296 295 294 294 294 293 293 292 291 290 288
298 299 300 301 302 304 305 306 306 306 306 306 306 306 306 305 305 304 303 302 301 301 300 299 299 298 297 297 297 295 294 294 294 294 292 291 290 289
298 299 300 301 303 304 305 306 306 306 306 306 307 307 306 306 305 304 304 303 303 302 301 300 300 299 299 298 298 297 296 295 295 293 292 292 291 290
300 301 302 303 304 304 304 305 305 305 306 307 307 306 306 306 306 305 305 305 305 304 302 301 300 300 299 299 299 299 298 298 296 294 293 292 292 290
302 302 303 304 304 304 305 306 306 306 306 307 307 307 307 307 306 305 305 306 304 304 303 302 300 300 300 300 300 300 300 300 298 296 295 293 291 290
302 304 305 305 305 306 307 307 307 307 307 308 308 308 308 308 307 306 306 306 306 305 304 303 301 301 300 300 301 301 301 300 299 298 297 295 294 291
301 303 304 305 306 306 307 307 308 309 308 308 309 309 309 309 308 307 307 306 306 305 304 303 302 302 302 302 302 302 301 301 300 299 298 297 296 294
301 302 303 304 306 306 306 307 308 308 309 309 309 310 310 310 310 309 308 307 307 307 306 305 304 304 303 303 303 302 302 301 300 300 299 298 297 296
301 302 303 305 306 307 307 307 307 308 309 310 309 309 310 311 312 311 310 309 308 308 308 307 306 305 304 304 303 302 302 302 301 300 299 299 298 297
301 301 302 304 305 306 307 307 307 308 309 309 309 309 310 311 312 312 310 309 308 307 308 307 306 305 305 305 305 304 303 302 301 300 299 299 299 298
300 301 301 303 305 306 307 308 308 308 309 309 310 310 310 311 312 311 310 309 308 308 308 307 307 307 307 307 307 306 304 303 303 302 301 301 300 299
298 299 300 302 304 305 306 307 307 308 308 309 310 310 311 311 312 311 310 309 309 309 309 309 308 308 308 308 308 307 305 303 303 303 303 303 302 300
298 299 300 302 303 304 305 306 307 307 308 308 308 309 310 311 312 312 311 310 310 309 309 309 309 310 310 309 309 308 306 305 303 303 303 303 303 301
Height
5855 5855 5854 5854 5853 5853 5853 5853 5853 5852 5852 5850 5850 5849 5848 5847 5846 5845 5844 5843 5842 5841 5839 5838 5837 5835 5833 5832 5830 5828 5827 5825 5824 5822 5822 5822 5822 5821
5853 5853 5852 5852 5851 5851 5850 5850 5850 5849 5848 5848 5847 5846 5844 5844 5842 5841 5840 5839 5838 5836 5835 5833 5832 5830 5828 5827 5825 5823 5821 5819 5818 5817 5817 5816 5815 5815
5852 5851 5850 5850 5849 5849 5848 5847 5846 5846 5845 5844 5843 5842 5841 5840 5839 5837 5836 5835 5833 5832 5830 5828 5826 5825 5823 5821 5819 5817 5815 5813 5812 5810 5810 5809 5808 5807
5849 5849 5848 5847 5847 5846 5845 5844 5843 5842 5841 5840 5839 5838 5837 5835 5834 5833 5831 5830 5828 5827 5825 5823 5821 5819 5817 5815 5813 5811 5809 5807 5805 5803 5802 5801 5800 5799
5847 5846 5845 5844 5843 5843 5842 5840 5839 5838 5837 5836 5835 5833 5832 5830 5829 5827 5826 5824 5822 5820 5818 5816 5814 5812 5810 5808 5806 5804 5802 5800 5798 5796 5795 5793 5792 5791
5844 5843 5842 5841 5840 5839 5838 5837 5835 5834 5833 5831 5830 5828 5827 5825 5823 5821 5820 5818 5816 5813 5811 5809 5807 5805 5803 5800 5798 5796 5794 5792 5790 5788 5786 5784 5783 5781
5840 5839 5838 5837 5836 5835 5834 5832 5831 5830 5828 5826 5825 5823 5821 5819 5817 5815 5813 5811 5809 5806 5804 5802 5799 5797 5794 5792 5790 5787 5785 5783 5781 5779 5777 5775 5773 5771
5837 5836 5835 5833 5832 5831 5829 5828 5826 5824 5823 5821 5819 5817 5815 5813 5810 5808 5806 5804 5802 5799 5796 5794 5791 5788 5785 5783 5781 5778 5776 5774 5771 5769 5767 5765 5762 5760
5833 5832 5831 5829 5828 5826 5824 5823 5821 5819 5817 5815 5813 5811 5808 5806 5803 5801 5798 5796 5793 5790 5788 5785 5782 5780 5777 5774 5771 5769 5766 5764 5761 5758 5756 5753 5751 5748
5829 5828 5826 5825 5823 5821 5820 5818 5816 5813 5811 5809 5806 5804 5801 5798 5796 5793 5790 5787 5785 5781 5778 5776 5773 5771 5768 5765 5762 5759 5756 5753 5750 5747 5744 5741 5738 5735
5824 5823 5821 5820 5818 5816 5814 5812 5810 5807 5805 5802 5799 5796 5793 5790 5787 5784 5781 5778 5776 5773 5769 5767 5764 5761 5758 5754 5751 5748 5744 5741 5738 5734 5731 5728 5725 5722
5819 5818 5816 5814 5812 5810 5808 5806 5803 5801 5798 5795 5792 5789 5785 5782 5778 5775 5772 5769 5766 5763 5760 5756 5753 5750 5748 5744 5739 5736 5732 5729 5725 5721 5718 5714 5711 5708
5814 5812 5811 5808 5806 5804 5802 5799 5797 5794 5791 5788 5785 5781 5778 5774 5770 5766 5762 5759 5756 5752 5749 5746 5742 5738 5735 5733 5729 5724 5720 5716 5712 5708 5704 5700 5697 5694
5809 5807 5805 5802 5800 5797 5795 5792 5789 5786 5783 5780 5777 5773 5769 5765 5761 5757 5753 5749 5746 5742 5738 5734 5731 5727 5724 5720 5717 5713 5708 5703 5699 5695 5691 5687 5683 5679
5803 5801 5798 5796 5793 5791 5788 5785 5782 5779 5776 5772 5769 5765 5761 5756 5752 5748 5744 5740 5736 5731 5727 5723 5719 5715 5712 5708 5704 5700 5696 5691 5686 5682 5677 5673 5670 5666
5797 5794 5792 5789 5787 5784 5781 5778 5774 5771 5767 5764 5760 5756 5752 5748 5743 5739 5734 5730 5726 5722 5717 5712 5707 5703 5700 5695 5691 5687 5682 5678 5673 5669 5664 5660 5656 5652
5790 5788 5785 5783 5780 5777 5774 5770 5767 5763 5759 5756 5751 5747 5743 5738 5734 5729 5724 5720 5715 5711 5706 5702 5696 5692 5687 5683 5679 5674 5669 5664 5659 5655 5651 5647 5643 5638
5784 5781 5778 5775 5773 5769 5766 5763 5759 5755 5751 5747 5743 5738 5734 5729 5724 5719 5714 5710 5705 5700 5695 5690 5686 5681 5676 5671 5666 5661 5656 5651 5646 5642 5637 5634 5630 5625
5776 5774 5771 5768 5765 5762 5758 5755 5751 5747 5743 5738 5734 5730 5725 5720 5715 5710 5704 5699 5694 5689 5684 5679 5674 5669 5664 5660 5654 5647 5643 5638 5633 5629 5624 5620 5616 5611
5769 5766 5763 5760 5757 5754 5750 5746 5742 5738 5734 5729 5725 5720 5715 5710 5705 5700 5694 5689 5684 5678 5673 5668 5662 5657 5651 5647 5642 5636 5629 5624 5620 5616 5611 5606 5602 5597
5761 5758 5755 5752 5749 5745 5742 5738 5734 5729 5725 5720 5715 5710 5705 5700 5695 5689 5684 5678 5673 5667 5662 5656 5650 5645 5639 5634 5629 5623 5617 5611 5606 5602 5598 5593 5589 5584
5753 5750 5747 5743 5740 5736 5732 5729 5724 5720 5715 5711 5706 5701 5695 5690 5685 5679 5673 5668 5662 5656 5650 5645 5638 5633 5627 5621 5616 5610 5605 5599 5593 5588 5583 5579 5575 5571
5744 5741 5738 5734 5731 5727 5723 5719 5715 5710 5705 5700 5695 5690 5685 5679 5674 5668 5662 5656 5651 5645 5639 5633 5627 5621 5614 5609 5603 5597 5592 5587 5582 5577 5572 5566 5561 5557